Tracking 23114 objects as of 16-May-2021
HD Live streaming from Space Station
objects crossing your sky now

SMS 2 AKM

Track SMS 2 AKM now!


NORAD ID: 20835
Int'l Code: 1975-011F
Perigee: 35,862.6 km
Apogee: 36,681.4 km
Inclination: 8.5 °
Period: 1,460.6 minutes
Semi major axis: 42643 km
RCS: 0.7943 m2 (medium)
Launch date: February 6, 1975
Source: United States (US)
Launch site: AIR FORCE EASTERN TEST RANGE (AFETR)

Note: This is a ROCKET BODY
aabbcc
Your satellite tracking list
Your tracking list is empty




NASA's NSSDC Master Catalog

Two Line Element Set (TLE):
1 20835U 75011F   21136.11390171 -.00000193  00000-0  00000-0 0  9992
2 20835   8.5118 297.4068 0096007  86.8156 243.4332  0.98589550 28252
Source of the keplerian elements: AFSPC